Palmer, AK (99645)

7:05 AM AKST on December 10, 2016 (GMT -0900)
Pioneer View | | Change Station

Elev 300 ft 61.59 °N, 149.17 °W | Updated 10 seconds ago

Clear
Clear
20.3 °F
Feels Like 9 °F
N
11.0
Wind Variable Wind from NNW
Gusts 17.4 mph

Today
High -- | Low -- °F
--% Chance of Precip.
Yesterday
High -- | Low -- °F
Precip. -- in
Pressure 30.17 in
Visibility 10.0 miles
Clouds Clear
Windchill 9 °F
Dew Point -6 °F
Humidity 30%
Rainfall 0.00 in
Snow Depth Not available.
10:04 AM 3:34 PM
Waxing Gibbous, 84% visible
METAR PAAQ 101553Z AUTO 00000KT 10SM CLR M13/M16 A3015 RMK AO2 SLP217 T11331156 TSNO
Pressure 30.17 in
Visibility 10.0 miles
Clouds Clear
Windchill 9 °F
Dew Point -6 °F
Humidity 30%
Rainfall 0.00 in
Snow Depth Not available.
10:04 AM 3:34 PM
Waxing Gibbous, 84% visible
METAR PAAQ 101553Z AUTO 00000KT 10SM CLR M13/M16 A3015 RMK AO2 SLP217 T11331156 TSNO

10-Day Weather Forecast

Almanac

Astronomy

Dec. 10, 2016 Rise Set
Actual Time
Civil Twilight
Nautical Twilight
Astronomical Twilight
Moon
Length of Visible Light
Length of Day
Tomorrow will be .
, % of the Moon is Illuminated

Today's Extremes

State Highs State Lows

Community

WunderPhotos

Upload Photos

1,956,569 photos uploaded!

WunderBlog® & News

Nearby

Air Quality

  Air Quality AQ Index Pollutant
Not available.

Snow Depth

Station Depth Elevation

Earthquake Activity

City Distance Mag. Time & Date
Minimum magnitude displayed is 2.5.

Coastal Water Temperatures

Place Temperature

Stations

Nearby Weather Stations

Station Location Temp. Windchill Dew Point Humidity Wind Precip. Elev Updated Type
                   

Watches & Warnings

There are currently no watches in effect.